Wind_Speed
7 7 7 8 9 9 9 9 9 10 10 10 11 11 12 13 13 12 12 12 13 14 14 15 15 16 16 16 16 16 16 15 15 15 15 15 16 16 16 15 15 15 16
5 6 6 7 8 8 8 8 8 8 9 9 9 9 10 11 11 12 12 13 13 14 14 15 15 16 17 17 17 17 17 17 17 17 16 17 17 17 17 16 16 17 17
4 4 6 7 6 6 6 6 6 6 6 6 6 7 7 8 9 10 11 12 13 14 15 16 16 17 17 18 18 18 18 18 18 18 18 17 17 17 17 17 17 17 18
3 3 5 5 5 5 5 5 4 4 4 4 5 5 6 7 7 9 10 12 13 14 15 16 17 17 17 17 17 18 18 18 18 18 18 18 18 18 17 17 17 18 18
2 3 4 4 4 4 4 4 4 4 4 4 4 5 5 6 7 8 9 11 12 13 14 15 15 15 15 15 15 15 16 16 16 17 17 17 17 17 17 17 17 18 18
4 4 4 5 5 5 5 5 5 5 4 4 5 5 5 6 7 8 9 10 11 12 13 14 15 15 14 14 14 14 15 15 15 16 16 16 16 16 16 17 17 18 18
6 6 6 7 7 7 7 7 6 6 5 5 5 5 6 7 8 9 10 11 12 14 15 16 16 16 16 16 16 15 15 16 16 15 16 16 16 16 17 17 17 17 18
7 8 8 9 9 9 9 8 7 7 6 6 6 6 7 8 9 10 12 13 14 15 16 17 18 18 18 17 17 16 16 16 16 16 16 16 17 17 17 18 18 18 19
10 10 10 10 10 11 10 9 8 7 7 7 6 7 7 8 10 11 12 13 14 16 17 18 19 19 19 18 17 17 16 16 16 16 17 17 18 18 18 18 19 19 19
12 12 12 12 12 12 12 11 10 9 9 9 8 8 8 8 9 10 11 12 13 14 16 17 17 17 17 17 17 17 17 17 17 18 18 18 19 19 20 20 20 20 21
13 13 14 14 14 14 13 12 12 11 11 10 9 9 8 8 8 9 10 10 11 12 13 14 14 15 15 15 15 16 16 17 17 18 19 19 20 21 21 22 22 22 23
12 13 15 16 16 16 15 14 13 12 12 11 11 10 9 9 9 9 9 9 10 11 12 12 13 13 13 14 15 16 17 18 19 19 20 21 22 23 23 24 24 25 26
11 12 14 15 17 17 16 15 14 13 12 12 12 12 11 10 9 9 9 9 10 10 11 12 13 14 14 15 16 17 18 19 20 21 22 22 23 24 25 25 26 27 28
11 12 14 15 16 16 16 16 15 14 14 13 13 12 12 11 11 10 9 10 10 11 13 14 15 17 17 18 18 19 20 21 22 23 24 24 25 26 27 29 30 31 32
12 13 15 16 16 16 17 16 16 16 16 16 15 15 14 14 14 13 12 13 13 14 15 16 18 20 21 22 23 23 24 25 26 26 27 29 30 31 32 33 35 36 37
13 15 17 17 17 18 18 18 18 18 18 18 19 19 18 18 18 18 17 16 17 17 18 19 20 22 24 25 27 28 29 30 31 32 33 34 35 36 37 38 38 39 40
15 17 18 18 19 21 22 21 20 20 21 21 23 23 23 24 23 22 22 21 21 22 22 22 22 24 26 27 29 31 33 34 36 37 38 38 39 40 40 41 41 42 43
16 18 19 20 21 24 25 24 24 24 24 25 26 28 29 29 29 27 27 26 25 25 25 25 25 26 27 29 31 33 35 36 38 40 41 41 42 42 43 44 44 45 46
17 19 19 21 24 26 27 28 29 30 29 29 30 31 33 34 34 32 31 30 29 29 28 28 28 28 29 31 33 35 36 37 39 40 41 43 44 45 46 46 47 48 48
18 19 21 23 26 28 30 32 33 34 34 35 36 36 36 36 35 34 33 32 30 30 30 29 29 29 31 33 35 36 38 39 40 41 42 44 46 47 48 49 50 51 52
19 20 22 25 28 31 33 34 36 39 38 38 38 37 36 34 32 32 32 31 29 28 28 28 28 30 32 34 36 37 39 40 42 43 44 46 48 49 51 52 53 53 54
21 22 24 27 29 32 35 37 40 41 40 39 38 34 32 30 29 29 30 30 28 28 29 30 31 32 34 35 38 40 41 42 43 45 47 49 51 52 54 55 56 57 59
25 26 27 29 32 35 38 39 41 43 42 40 36 32 29 28 27 28 28 30 30 30 31 32 34 36 37 38 40 42 43 43 45 47 49 52 54 56 58 59 60 62 63
30 30 32 34 36 39 41 42 43 43 43 40 37 32 30 27 26 26 28 29 31 32 34 36 38 39 41 42 43 45 46 47 49 50 52 54 57 59 61 63 64 66 67
34 35 37 38 41 42 44 45 46 45 45 41 38 34 31 27 27 28 29 32 34 37 39 41 42 44 46 47 48 49 51 52 54 55 55 57 60 62 65 66 68 69 70
38 39 41 43 43 44 45 46 47 45 42 39 37 35 32 30 29 31 33 35 38 41 43 45 47 49 50 52 53 54 56 57 58 59 60 61 62 64 66 68 69 70 71
Wind_Direction
275 266 267 273 273 273 276 278 278 278 277 278 277 276 279 282 283 285 286 289 291 293 295 297 298 298 297 296 294 291 289 286 285 284 283 282 281 279 278 278 277 276 277
271 268 273 275 273 272 274 277 281 282 282 282 282 280 280 280 282 285 287 290 292 294 295 297 297 296 295 294 292 290 287 285 284 283 282 282 281 280 280 278 276 276 276
280 278 282 279 275 275 277 281 284 290 293 295 296 295 293 291 289 289 289 291 292 294 295 295 295 294 293 292 290 288 286 284 282 281 280 279 279 279 278 277 275 275 275
306 299 290 282 283 285 286 289 293 300 304 305 304 303 301 299 298 296 294 295 296 295 294 294 294 294 293 293 291 288 285 283 280 279 278 277 277 277 278 277 276 276 277
358 327 303 297 302 301 301 301 303 306 308 310 309 307 305 304 304 303 301 299 298 297 295 295 297 297 297 296 294 291 287 284 282 279 278 278 278 279 279 279 279 280 280
32 3 338 331 330 324 319 316 314 312 309 310 309 308 308 307 305 303 302 302 301 301 300 300 299 299 299 299 297 295 293 290 286 283 281 281 281 281 281 281 280 282 283
33 14 358 349 344 339 331 324 320 316 312 310 309 309 309 307 305 302 301 301 300 299 299 298 297 297 297 298 297 296 295 291 288 286 285 284 284 284 284 284 284 284 283
26 15 5 356 349 345 337 330 325 321 315 310 309 308 306 302 299 297 297 297 296 295 295 294 293 294 295 295 294 292 290 289 287 285 284 284 285 285 285 285 284 283 283
22 13 7 2 355 348 341 333 326 321 314 309 306 303 300 297 295 293 292 291 290 290 290 290 291 291 292 292 291 289 287 287 286 284 283 283 284 284 284 284 283 283 283
23 18 14 9 1 352 344 335 326 318 311 306 302 298 296 294 292 291 289 287 286 286 287 287 289 290 292 291 290 287 286 286 285 284 284 284 285 285 286 285 285 284 284
25 23 19 14 6 357 349 338 327 317 308 302 297 293 292 291 291 291 289 288 287 286 286 287 288 290 291 291 290 289 288 288 286 285 285 285 285 285 286 286 285 285 284
20 19 15 10 4 358 351 342 332 319 308 299 294 289 288 287 288 289 290 290 289 289 289 289 289 289 288 287 287 287 287 286 285 284 283 283 284 285 286 287 288 288 288
1 2 2 358 355 351 348 343 334 325 315 306 299 293 289 286 285 286 289 291 293 294 293 292 290 289 287 284 282 281 280 279 279 279 279 280 282 283 284 286 287 287 288
342 345 348 346 346 343 341 338 333 327 321 313 305 299 292 286 283 283 285 288 291 293 294 294 293 291 288 285 282 279 277 277 277 277 278 279 281 282 283 284 284 285 285
331 335 336 337 337 335 333 331 326 324 321 315 311 303 296 289 285 283 285 286 288 290 294 296 294 293 291 289 287 285 283 281 280 281 281 281 282 282 283 283 283 284 284
319 322 326 329 328 328 327 324 320 316 316 312 308 303 296 290 285 282 281 283 284 286 289 292 292 292 291 290 289 288 287 285 284 282 281 281 281 281 281 282 282 283 283
311 315 319 321 322 321 321 317 314 312 309 306 302 298 294 290 284 280 278 279 280 281 283 285 287 289 290 290 288 286 284 282 281 280 279 279 280 281 281 282 282 283 283
304 310 313 316 316 316 316 314 310 308 306 304 299 294 290 286 280 275 274 274 275 276 278 280 282 285 287 289 288 286 284 282 281 280 280 281 281 282 283 283 283 283 283
298 305 308 310 312 313 312 310 310 306 303 301 297 291 285 281 277 273 270 271 272 274 276 278 280 283 286 288 288 288 288 286 284 283 282 282 282 283 283 284 284 284 283
291 299 303 306 308 309 309 307 305 302 298 296 291 283 278 276 275 271 269 270 273 275 278 278 282 285 287 289 290 291 289 288 287 285 284 283 283 282 282 282 283 284 284
286 293 298 301 303 303 303 301 299 295 292 292 289 283 279 275 273 273 269 271 275 279 283 286 289 291 292 292 293 293 292 290 287 286 285 284 283 283 282 283 283 283 284
280 285 291 294 295 296 296 294 293 291 288 290 291 295 287 281 278 279 278 280 282 290 298 300 300 299 297 296 296 294 293 291 288 287 286 285 284 283 283 284 284 284 284
275 281 285 288 290 292 291 288 285 286 286 288 291 297 297 293 288 284 285 290 292 300 303 302 304 303 301 299 298 295 294 292 290 289 287 286 285 285 285 285 285 285 285
275 281 285 287 289 289 289 285 282 284 285 290 294 299 300 301 302 295 297 298 300 303 305 305 305 303 302 300 298 296 295 294 293 291 289 288 287 287 287 287 286 286 285
277 281 284 286 287 288 289 287 285 287 289 293 299 303 308 306 305 303 300 302 304 305 305 305 304 303 302 301 299 298 297 296 294 293 291 290 289 288 288 287 287 286 285
277 280 282 284 285 285 287 288 290 294 297 303 311 313 310 308 307 306 305 306 306 305 305 304 303 302 302 300 299 299 298 297 295 294 293 291 290 289 288 288 287 286 285
Height
5885 5885 5886 5887 5887 5888 5888 5888 5888 5888 5889 5889 5890 5890 5891 5891 5892 5893 5894 5895 5895 5896 5897 5897 5898 5898 5898 5898 5899 5899 5898 5898 5898 5898 5898 5899 5899 5899 5899 5900 5900 5900 5900
5884 5884 5884 5885 5886 5886 5886 5886 5886 5886 5886 5887 5887 5888 5889 5890 5890 5891 5892 5892 5893 5894 5894 5895 5895 5896 5896 5896 5896 5896 5896 5896 5896 5896 5896 5896 5896 5896 5897 5897 5897 5897 5898
5883 5883 5883 5883 5884 5884 5884 5884 5884 5884 5885 5885 5885 5886 5887 5888 5888 5889 5890 5890 5891 5891 5891 5892 5892 5893 5893 5893 5894 5893 5893 5893 5893 5893 5893 5893 5893 5893 5893 5894 5894 5894 5894
5882 5882 5882 5883 5883 5882 5882 5882 5882 5883 5883 5883 5884 5884 5885 5886 5886 5887 5887 5888 5888 5888 5888 5889 5889 5889 5890 5890 5891 5890 5890 5890 5890 5890 5890 5890 5890 5890 5890 5890 5890 5890 5890
5882 5882 5882 5882 5882 5881 5881 5881 5881 5881 5881 5882 5882 5883 5883 5884 5884 5885 5885 5886 5886 5886 5886 5886 5886 5887 5887 5887 5887 5887 5887 5887 5886 5886 5886 5886 5886 5886 5886 5886 5886 5886 5886
5882 5882 5883 5882 5882 5881 5880 5880 5880 5880 5880 5880 5881 5881 5881 5882 5882 5883 5883 5883 5883 5883 5883 5883 5883 5884 5885 5885 5885 5884 5884 5883 5883 5883 5883 5883 5883 5883 5883 5883 5882 5882 5882
5882 5882 5882 5882 5881 5881 5880 5880 5879 5879 5879 5879 5879 5879 5880 5880 5880 5880 5880 5880 5880 5880 5880 5880 5880 5881 5881 5882 5882 5881 5881 5880 5880 5879 5879 5879 5879 5879 5879 5879 5879 5879 5879
5883 5882 5882 5881 5881 5880 5880 5879 5879 5879 5878 5878 5878 5878 5878 5878 5878 5878 5877 5877 5877 5877 5877 5876 5876 5877 5878 5878 5878 5878 5877 5877 5876 5876 5876 5875 5875 5875 5875 5875 5875 5875 5875
5883 5882 5882 5881 5880 5880 5879 5879 5878 5878 5877 5877 5877 5877 5876 5876 5876 5875 5875 5875 5874 5874 5873 5873 5873 5873 5874 5874 5874 5874 5873 5873 5873 5872 5872 5872 5871 5871 5871 5871 5871 5871 5871
5883 5882 5881 5881 5880 5879 5879 5878 5878 5877 5876 5876 5875 5875 5875 5874 5874 5873 5872 5872 5871 5871 5870 5870 5869 5870 5870 5870 5870 5870 5869 5869 5869 5869 5869 5868 5868 5868 5867 5867 5867 5867 5867
5883 5882 5881 5881 5880 5879 5878 5878 5877 5876 5876 5875 5874 5874 5873 5872 5872 5871 5870 5869 5869 5868 5867 5866 5866 5866 5867 5866 5866 5866 5866 5866 5866 5865 5865 5865 5865 5864 5864 5863 5863 5863 5863
5883 5882 5881 5881 5880 5879 5878 5877 5876 5875 5875 5874 5873 5872 5871 5870 5869 5868 5868 5867 5866 5865 5864 5863 5863 5863 5863 5863 5863 5863 5862 5862 5862 5862 5862 5862 5861 5861 5860 5860 5859 5858 5858
5882 5881 5881 5881 5880 5879 5878 5877 5876 5875 5873 5872 5871 5870 5869 5868 5867 5866 5865 5864 5863 5862 5861 5860 5860 5859 5859 5859 5859 5859 5859 5859 5858 5858 5858 5858 5857 5857 5856 5855 5854 5854 5853
5881 5881 5880 5880 5879 5878 5877 5876 5875 5873 5872 5871 5869 5868 5867 5866 5864 5863 5862 5861 5860 5859 5858 5857 5856 5856 5856 5855 5855 5855 5854 5854 5853 5853 5853 5852 5852 5851 5851 5850 5849 5848 5847
5880 5879 5879 5879 5878 5877 5876 5875 5873 5872 5870 5868 5867 5866 5864 5863 5862 5860 5859 5858 5857 5855 5854 5853 5852 5851 5851 5850 5849 5849 5849 5848 5847 5847 5846 5846 5845 5845 5844 5843 5842 5841 5840
5878 5878 5877 5877 5876 5874 5873 5872 5871 5869 5867 5865 5864 5862 5861 5859 5858 5856 5855 5854 5852 5851 5850 5849 5848 5847 5845 5844 5844 5843 5842 5841 5840 5840 5839 5838 5837 5837 5836 5835 5833 5832 5831
5876 5875 5875 5874 5873 5871 5870 5868 5866 5865 5863 5861 5859 5857 5856 5854 5852 5851 5850 5848 5847 5846 5845 5844 5842 5841 5840 5839 5838 5837 5835 5834 5834 5833 5832 5831 5829 5828 5826 5825 5823 5822 5820
5873 5872 5871 5870 5869 5867 5865 5864 5862 5859 5857 5855 5853 5851 5849 5847 5845 5843 5842 5841 5840 5839 5838 5837 5836 5835 5834 5833 5832 5830 5828 5827 5825 5824 5823 5822 5820 5818 5815 5813 5812 5810 5808
5870 5869 5868 5866 5864 5862 5860 5858 5856 5854 5851 5849 5846 5843 5840 5838 5836 5835 5833 5832 5832 5832 5831 5831 5830 5829 5828 5826 5824 5822 5820 5818 5816 5815 5813 5811 5809 5807 5804 5802 5800 5798 5796
5866 5865 5864 5862 5860 5857 5855 5852 5850 5847 5844 5841 5836 5833 5830 5828 5827 5825 5825 5824 5824 5825 5824 5823 5822 5821 5820 5819 5816 5814 5812 5809 5807 5805 5803 5801 5799 5796 5793 5791 5788 5786 5784
5861 5861 5859 5858 5855 5852 5849 5846 5843 5839 5835 5831 5827 5822 5820 5819 5818 5817 5817 5817 5817 5817 5817 5815 5814 5813 5812 5810 5808 5805 5803 5800 5797 5795 5792 5790 5787 5784 5781 5779 5776 5773 5770
5856 5855 5854 5852 5849 5846 5843 5839 5836 5831 5827 5824 5819 5816 5814 5812 5812 5811 5811 5811 5810 5809 5808 5807 5806 5804 5803 5801 5798 5796 5793 5791 5788 5785 5782 5778 5775 5771 5768 5765 5762 5759 5756
5848 5848 5847 5845 5843 5840 5837 5832 5828 5824 5820 5816 5813 5811 5808 5807 5806 5805 5804 5803 5802 5801 5800 5798 5797 5796 5793 5791 5789 5786 5783 5780 5777 5774 5770 5766 5762 5758 5754 5751 5747 5743 5739
5841 5840 5839 5838 5836 5833 5829 5824 5819 5814 5811 5808 5806 5804 5802 5800 5799 5798 5796 5795 5794 5793 5791 5790 5788 5786 5783 5781 5778 5775 5772 5768 5765 5762 5758 5753 5748 5743 5739 5735 5730 5726 5721
5834 5833 5831 5830 5828 5825 5821 5816 5812 5807 5804 5802 5799 5797 5795 5794 5793 5792 5790 5788 5787 5785 5783 5780 5778 5775 5772 5769 5766 5762 5759 5755 5751 5748 5745 5740 5734 5728 5723 5718 5712 5707 5702
5826 5825 5824 5822 5820 5817 5813 5809 5804 5799 5796 5792 5791 5790 5789 5788 5786 5785 5783 5781 5778 5776 5773 5770 5767 5763 5760 5756 5753 5749 5745 5741 5736 5732 5729 5725 5721 5714 5706 5699 5693 5687 5681